Bartlesville, OK

6:53 PM CDT on April 25, 2017 (GMT -0500)
Bartlesville Municipal

Weather History for KBVO - December, 2013

Change the Weather History Date:

Thursday, December 26, 2013

  Actual Average Record
Temperature  
Mean Temperature 36 °F -  
Max Temperature 52 °F 47 °F 75 °F (2008)
Min Temperature 19 °F 24 °F 4 °F (1962)
Degree Days  
Heating Degree Days 30    
Moisture  
Dew Point 26 °F    
Average Humidity 80    
Maximum Humidity 96    
Minimum Humidity 43    
Precipitation  
Precipitation 0.00 in - - ()
Sea Level Pressure  
Sea Level Pressure 30.37 in    
Wind  
Wind Speed 2 mph (SSW)    
Max Wind Speed 12 mph    
Max Gust Speed 17 mph    
Visibility 9 miles    
Events      
Averages and records for this station are not official NWS values.
T = Trace of Precipitation, MM = Missing Value Source: NWS Daily Summary

Daily Weather History Graph

Daily Weather History Graph

Search for Another Location

Airport or City:

Trip Planner

Search our weather history database for the weather conditions in past years. The results will help you decide how hot, cold, wet, or windy it might be!

Date:

Astronomy

Dec. 26, 2013 Rise Set
Actual Time 7:35 AM CST 5:14 PM CST
Civil Twilight 7:06 AM CST 5:43 PM CST
Nautical Twilight 6:33 AM CST 6:15 PM CST
Astronomical Twilight 6:02 AM CST 6:47 PM CST
Moon 1:11 AM CST (12/26) 12:44 PM CST (12/26)
Length of Visible Light 10h 37m
Length of Day
9h 39m
Last Quarter, 38% of the Moon is Illuminated
Dec 26
Last Quarter
Jan 1
New
Jan 7
First Quarter
Jan 15
Full
Jan 23
Last Quarter

Hourly Weather History & Observations

Time (CST) Temp. Windchill Dew Point Humidity Pressure Visibility Wind Dir Wind Speed Gust Speed Precip Events Conditions
12:05 AM 23.0 °F - 21.2 °F 93% 30.42 in 5.0 mi Calm Calm - N/A   Partly Cloudy
12:53 AM 21.0 °F - 19.9 °F 96% 30.42 in 6.0 mi Calm Calm - N/A   Clear
1:27 AM 21.2 °F - 19.4 °F 93% 30.40 in 6.0 mi Calm Calm - N/A   Partly Cloudy
1:53 AM 21.9 °F - 19.9 °F 92% 30.40 in 7.0 mi Calm Calm - N/A   Clear
2:53 AM 21.0 °F - 19.9 °F 96% 30.41 in 7.0 mi Calm Calm - N/A   Clear
3:53 AM 19.9 °F - 18.0 °F 92% 30.42 in 8.0 mi Calm Calm - N/A   Clear
4:53 AM 19.9 °F - 18.0 °F 92% 30.41 in 8.0 mi Calm Calm - N/A   Clear
5:53 AM 19.9 °F - 17.1 °F 89% 30.41 in 9.0 mi Calm Calm - N/A   Clear
6:53 AM 19.0 °F - 17.1 °F 92% 30.40 in 9.0 mi Calm Calm - N/A   Clear
7:53 AM 19.0 °F - 17.1 °F 92% 30.41 in 9.0 mi Calm Calm - N/A   Clear
8:53 AM 25.0 °F - 23.0 °F 92% 30.41 in 7.0 mi Calm Calm - N/A   Clear
9:53 AM 32.0 °F 27.5 °F 30.0 °F 92% 30.41 in 8.0 mi SSE 4.6 mph - N/A   Clear
10:53 AM 42.1 °F 38.4 °F 34.0 °F 73% 30.42 in 10.0 mi SSW 5.8 mph - N/A   Clear
11:53 AM 46.0 °F 41.9 °F 33.1 °F 61% 30.39 in 10.0 mi SW 8.1 mph - N/A   Clear
12:53 PM 48.9 °F - 33.1 °F 54% 30.35 in 10.0 mi South 9.2 mph - N/A   Clear
1:53 PM 52.0 °F - 30.9 °F 45% 30.31 in 10.0 mi SSW 10.4 mph - N/A   Clear
2:53 PM 52.0 °F - 30.0 °F 43% 30.29 in 10.0 mi South 10.4 mph 17.3 mph N/A   Clear
3:53 PM 51.1 °F - 30.9 °F 46% 30.28 in 10.0 mi South 11.5 mph - N/A   Clear
4:53 PM 46.9 °F - 33.1 °F 59% 30.30 in 10.0 mi South 5.8 mph - N/A   Clear
5:53 PM 39.0 °F 36.8 °F 30.9 °F 73% 30.31 in 10.0 mi South 3.5 mph - N/A   Clear
6:53 PM 39.9 °F 37.8 °F 30.9 °F 70% 30.31 in 10.0 mi SSW 3.5 mph - N/A   Clear
7:53 PM 39.0 °F 35.7 °F 30.9 °F 73% 30.33 in 10.0 mi SSW 4.6 mph - N/A   Clear
8:53 PM 30.0 °F 26.5 °F 28.0 °F 92% 30.35 in 10.0 mi SSW 3.5 mph - N/A   Clear
9:53 PM 27.0 °F - 26.1 °F 96% 30.35 in 10.0 mi Calm Calm - N/A   Clear
10:53 PM 30.9 °F 24.3 °F 26.1 °F 82% 30.36 in 10.0 mi SW 6.9 mph - N/A   Clear
11:53 PM 28.0 °F - 26.1 °F 92% 30.36 in 10.0 mi Calm Calm - N/A   Clear